Orbital Elements at Epoch 2459200.5 (2020-Dec-17.0) TDB
Reference: JPL 31 (heliocentric ecliptic J2000)
Element | Value | Uncertainty (1-sigma) | Units |
e | .1363552948485723 | 3.4713e-08 | |
a | 2.356591044083407 | 9.0718e-09 | au |
q | 2.035257377429909 | 8.1789e-08 | au |
i | 8.998529184506808 | 3.296e-06 | deg |
node | 107.0690507836885 | 2.3929e-05 | deg |
peri | 284.4864170696813 | 2.6951e-05 | deg |
M | 127.1652094212809 | 1.1552e-05 | deg |
tp | 2458733.743288680883 (2019-Sep-07.24328868) | 4.2838e-05 | TDB |
period | 1321.370969619638 3.62 | 7.63e-06 2.089e-08 | d yr |
n | .2724443084318914 | 1.5732e-09 | deg/d |
Q | 2.677924710736905 | 1.0309e-08 | au |
|
| | Orbit Determination Parameters
Additional Information
|